Погода в Юрятино

Россия / Калужская область     54°50′48″N   37°12′14″E
темп.,
°C
ветер,
м/с
пор.,
м/с
влажн.,
%
обл.,
%
осадки,
мм/ч
давл.,
гПа
погр.,
м
18 мая, вт
вт1800:00+18вюв5148614 0.0 1008331
03:00+16вюв411850 0.0 1008212
06:00+15вюв411830 0.0 1008233
09:00+20юв5116756 0.0 1008455
12:00+24юв7115923 0.0 1008728
15:00+25вюв711606 0.0 1007897
18:00+23вюв71466100 0.0 1006775
21:00+19вюв716755 0.0 1006511
19 мая, ср
ср1900:00+16ююв23928 0.0 100636
03:00+14юв22936 0.1 100624
06:00+15юв388994 0.0 1007256
09:00+19ююв587339 0.0 1007953
12:00+20ююв47630 0.1 10071196
15:00+22юв695890 0.1 10072041
18:00+20вюв4871100 0.1 1007429
21:00+16вюв338691 0.3 100637
20 мая, чт
чт2000:00+14вюв359399 0.1 100579
03:00+13юв3797100 0.4 1005190
06:00+13ююв5119240 0.1 1005481
09:00+15ююв577995 0.1 1006975
12:00+17ююв686828 0.5 10061273
15:00+18ююв797028 1.8 10051333
18:00+16ю59805 1.1 1005958
21:00+12ююв38935 1.3 1006181
21 мая, пт
пт2100:00+12ю5119694 0.7 1006507
03:00+11юз4993100 1.0 1006603
06:00+9ююз51093100 0.3 1007694
09:00+8ююз71194100 0.6 1007865
12:00+9юз71194100 0.3 1010991
15:00+9зюз71190100 0.5 10131008
18:00+14з51174100 0.0 10151391
21:00+10юз3586100 0.1 101776
22 мая, сб
сб2200:00+10юз3881100 0.0 1018147
03:00+9юз2287100 0.0 101939
06:00+10сз1183100 0.0 102045
09:00+14юв1267100 0.0 1020486
12:00+15юв4370100 0.0 10201066
15:00+11вюв3493100 0.7 1020215
18:00+10св2495100 0.3 1020197
21:00+9всв379783 0.4 1019185